Location: El Corozo
(10.5833°N, 66.9667°W)
Time: 23:13:20
(UTC+00:00)

Cosmos 2360 Rocket - Pass Details

Date: 23 May 2024
Orbit: 832 x 846 km, 71.0° (Epoch: 25 June)

Event Time Altitude Azimuth Distance (km) Brightness Sun altitude
Rises 07:13:21 0° 2° (N) 3,393 5.8 -38.1°
Reaches altitude 10° 07:16:07 10° 13° (NNE) 2,458 5.1 -37.5°
Maximum altitude 07:20:57 29° 72° (ENE) 1,494 3.9 -36.6°
Enters shadow 07:23:04 23° 108° (ESE) 1,722 4.0 -36.1°
